Location: Unspecified
(0.0000°N, 0.0000°E)
Time: 23:07:38
(UTC+00:00)

YUBILEINY - Visible Passes

Search period start: 19 January 2018 00:00
Search period end: 29 January 2018 00:00
Orbit: 1478 x 1509 km, 82.5° (Epoch: 19 January)

Date Brightness Start Highest point End Pass type
(mag) Time Alt. Az. Time Alt. Az. Time Alt. Az.
24 Jan ? 22:21:50 10° S 22:21:59 11° S 22:21:59 11° S visible
26 Jan ? 22:39:46 10° SSW 22:39:56 11° SSW 22:39:56 11° SSW visible
27 Jan ? 21:50:04 10° S 21:51:00 14° S 21:51:00 14° S visible
28 Jan ? 21:01:44 10° SSE 21:02:04 11° SSE 21:02:04 11° SSE visible
